This demonstration page uses our WeatherBlox Daily Observations layout. Learn more.

38.89511, -77.03637

Hourly Observations for April 11, 2015

Temp ( °F °C ) Dew Point ( °F °C ) Humidity (%) Winds ( mph kmh ) Pressure ( in mb ) Visibility ( mi km ) Precip ( " mm )
12:52 am 00:52 Cloudy 64 18 37 3 37 37 NW 20 31 29.94 1014 10 16.09344 0 0
1:52 am 01:52 Mostly Cloudy 63 17 36 2 37 37 NW 5 7 29.97 1015 10 16.09344 0 0
2:52 am 02:52 Cloudy 59 15 37 3 45 45 Calm 29.97 1015 10 16.09344 0 0
3:52 am 03:52 Cloudy 55 13 46 8 72 72 Calm 29.97 1015 10 16.09344 0 0
4:52 am 04:52 Mostly Cloudy 54 12 41 5 63 63 W 3 6 29.94 1014 10 16.09344 0 0
5:52 am 05:52 Mostly Cloudy 54 12 39 4 58 58 SW 6 9 29.97 1015 10 16.09344 0 0
6:52 am 06:52 Mostly Cloudy 57 14 36 2 44 44 W 8 13 30 1016 10 16.09344 0 0
7:52 am 07:52 Mostly Cloudy 61 16 36 2 39 39 WNW 18 30 30.03 1017 10 16.09344 0 0
8:52 am 08:52 Partly Cloudy 63 17 37 3 39 39 NW 16 26 30.06 1018 10 16.09344 0 0
9:52 am 09:52 Partly Cloudy 64 18 39 4 40 40 NNW 20 31 30.09 1019 10 16.09344 0 0
10:52 am 10:52 Partly Cloudy 63 17 36 2 37 37 NW 21 33 30.09 1019 10 16.09344 0 0
11:52 am 11:52 Partly Cloudy 63 17 36 2 37 37 N 23 37 30.12 1020 10 16.09344 0 0
12:52 pm 12:52 Partly Cloudy 66 19 34 1 30 30 NNW 13 20 30.12 1020 10 16.09344 0 0
1:52 pm 13:52 Partly Cloudy 66 19 28 -2 24 24 W 16 26 30.12 1020 10 16.09344 0 0
2:52 pm 14:52 Partly Cloudy 66 19 30 -1 26 26 WNW 15 24 30.12 1020 10 16.09344 0 0
3:52 pm 15:52 Partly Cloudy 66 19 28 -2 24 24 WNW 13 20 30.12 1020 10 16.09344 0 0
4:52 pm 16:52 Partly Cloudy 68 20 28 -2 23 23 NW 14 22 30.12 1020 10 16.09344 0 0
5:52 pm 17:52 Sunny 66 19 25 -4 21 21 NW 14 22 30.12 1020 10 16.09344 0 0
6:52 pm 18:52 Sunny 64 18 25 -4 22 22 NNW 12 19 30.15 1021 10 16.09344 0 0
7:52 pm 19:52 Clear 63 17 25 -4 24 24 NNW 8 13 30.15 1021 10 16.09344 0 0
8:52 pm 20:52 Clear 57 14 28 -2 33 33 NNW 9 15 30.21 1023 10 16.09344 0 0
9:52 pm 21:52 Clear 57 14 28 -2 33 33 NNW 7 11 30.24 1024 10 16.09344 0 0
10:52 pm 22:52 Clear 55 13 28 -2 36 36 NNW 8 13 30.24 1024 10 16.09344 0 0
11:52 pm 23:52 Clear 54 12 30 -1 41 41 N 7 11 30.27 1025 10 16.09344 0 0

Powered by AerisWeather